Location: Little Italy
(37.8008°N, 122.4108°W)
Time: 20:19:16
(UTC+00:00)

Cosmos 44 Rocket - Pass Details

Date: 29 October 2020
Orbit: 642 x 748 km, 65.1° (Epoch: 24 November)

Event Time Altitude Azimuth Distance (km) Brightness Sun altitude
Exits shadow 12:10:28 36° 161° (SSE) 1,167 4.5 -28.6°
Drops below altitude 10° 12:13:30 10° 156° (SSE) 2,255 6.1 -28.0°
Sets 12:15:52 0° 155° (SSE) 3,174 7.0 -27.5°
